W8CEN Weather Reports


time (UTC)temp
C
wind
direction
speed
KPH
gust
KPH
rain 1hr
cm
rain 24hr
cm
rain mn
cm
humidity
%
barometer
mb
20260503233533 13 233 8.0 11.3 0.00 0.00 0.00 58 990.1
20260503233029 13 264 8.0 11.3 0.00 0.00 0.00 57 990.2
20260503232526 13 240 14.5 16.1 0.00 0.00 0.00 56 990.1
20260503232024 14 273 9.7 11.3 0.00 0.00 0.00 54 989.9
20260503231521 14 239 9.7 12.9 0.00 0.00 0.00 52 989.9
20260503231018 15 215 9.7 14.5 0.00 0.00 0.00 51 989.9
20260503230514 15 262 11.3 12.9 0.00 0.00 0.00 49 989.7
20260503230012 16 238 11.3 16.1 0.00 0.00 0.00 42 989.8
20260503225509 16 291 4.8 6.4 0.00 0.00 0.00 38 989.7
20260503225004 16 244 6.4 9.7 0.00 0.00 0.00 36 989.7
20260503224501 16 256 6.4 6.4 0.00 0.00 0.00 35 989.9
20260503223959 16 334 6.4 9.7 0.00 0.00 0.00 36 989.8
20260503223457 16 228 8.0 11.3 0.00 0.00 0.00 37 989.8
20260503222952 16 226 6.4 9.7 0.00 0.00 0.00 37 989.9
20260503222451 16 225 6.4 6.4 0.00 0.00 0.00 35 989.7
20260503221949 16 247 8.0 9.7 0.00 0.00 0.00 36 989.8
20260503221447 16 251 4.8 4.8 0.00 0.00 0.00 37 989.9
20260503220943 16 247 8.0 9.7 0.00 0.00 0.00 36 989.8
20260503220439 16 296 6.4 11.3 0.00 0.00 0.00 36 989.9
20260503215937 17 246 9.7 14.5 0.00 0.00 0.00 35 990.0
20260503215433 17 239 9.7 11.3 0.00 0.00 0.00 35 989.8
20260503214931 17 255 9.7 11.3 0.00 0.00 0.00 34 989.9
20260503214429 17 225 8.0 11.3 0.00 0.00 0.00 34 990.1
20260503213926 17 304 12.9 16.1 0.00 0.00 0.00 35 990.0
20260503213424 17 256 9.7 11.3 0.00 0.00 0.00 33 990.1
20260503212920 17 246 12.9 20.9 0.00 0.00 0.00 32 990.1
20260503212418 17 269 6.4 9.7 0.00 0.00 0.00 35 990.0
20260503211915 17 321 4.8 9.7 0.00 0.00 0.00 35 990.1
20260503211412 17 249 8.0 11.3 0.00 0.00 0.00 34 990.1
20260503210907 17 233 9.7 12.9 0.00 0.00 0.00 34 990.0
20260503210404 17 303 6.4 11.3 0.00 0.00 0.00 33 990.0
20260503205859 17 208 14.5 16.1 0.00 0.00 0.00 32 990.0
20260503205356 17 248 6.4 11.3 0.00 0.00 0.00 32 990.3
20260503204852 17 237 9.7 14.5 0.00 0.00 0.00 32 990.2
20260503204349 17 240 9.7 12.9 0.00 0.00 0.00 32 990.2
20260503203847 17 293 6.4 11.3 0.00 0.00 0.00 33 990.3
20260503203344 17 228 12.9 16.1 0.00 0.00 0.00 32 990.4
20260503202841 17 245 16.1 20.9 0.00 0.00 0.00 32 990.3
20260503202339 17 245 9.7 12.9 0.00 0.00 0.00 33 990.3
20260503201837 17 251 6.4 9.7 0.00 0.00 0.00 33 990.6
20260503201334 17 259 8.0 11.3 0.00 0.00 0.00 32 990.5
20260503200832 17 236 12.9 14.5 0.00 0.00 0.00 32 990.6
20260503200327 17 242 12.9 12.9 0.00 0.00 0.00 32 990.6
20260503195825 17 236 9.7 14.5 0.00 0.00 0.00 33 990.5
20260503195321 17 259 11.3 16.1 0.00 0.00 0.00 33 990.6
20260503194819 17 259 9.7 12.9 0.00 0.00 0.00 32 990.7
20260503194314 18 232 9.7 11.3 0.00 0.00 0.00 33 990.9
20260503193810 17 252 12.9 16.1 0.00 0.00 0.00 33 990.7
20260503193307 17 249 8.0 11.3 0.00 0.00 0.00 33 990.8
20260503192803 17 277 12.9 17.7 0.00 0.00 0.00 33 991.2
20260503192258 17 243 11.3 16.1 0.00 0.00 0.00 34 990.7
20260503191755 17 233 6.4 11.3 0.00 0.00 0.00 33 991.3
20260503191252 17 232 12.9 16.1 0.00 0.00 0.00 32 991.2
20260503190748 17 319 6.4 9.7 0.00 0.00 0.00 35 991.4
20260503190245 17 281 6.4 6.4 0.00 0.00 0.00 33 991.2
20260503185743 17 249 12.9 16.1 0.00 0.00 0.00 33 991.5
20260503185238 17 253 9.7 12.9 0.00 0.00 0.00 32 991.4
20260503184733 17 227 9.7 16.1 0.00 0.00 0.00 34 991.6
20260503184230 17 243 9.7 11.3 0.00 0.00 0.00 33 991.6
20260503183726 17 252 11.3 14.5 0.00 0.00 0.00 34 991.6
20260503183223 17 235 12.9 14.5 0.00 0.00 0.00 35 991.9
20260503182721 17 248 9.7 14.5 0.00 0.00 0.00 36 991.7
20260503182220 17 254 8.0 11.3 0.00 0.00 0.00 34 991.9
20260503181716 17 235 9.7 12.9 0.00 0.00 0.00 33 992.0
20260503181213 17 250 6.4 9.7 0.00 0.00 0.00 35 992.0
20260503180709 17 257 12.9 14.5 0.00 0.00 0.00 33 992.1
20260503180208 17 258 6.4 9.7 0.00 0.00 0.00 32 992.2
20260503175704 17 271 6.4 9.7 0.00 0.00 0.00 36 992.3
20260503175202 17 180 9.7 12.9 0.00 0.00 0.00 33 992.3
20260503174657 17 267 12.9 16.1 0.00 0.00 0.00 33 992.3
20260503174155 17 250 9.7 14.5 0.00 0.00 0.00 35 992.4
20260503173650 17 232 9.7 11.3 0.00 0.00 0.00 35 992.3
20260503173147 16 249 8.0 12.9 0.00 0.00 0.00 37 992.4
20260503172644 17 238 9.7 16.1 0.00 0.00 0.00 35 992.5
20260503172141 16 269 8.0 9.7 0.00 0.00 0.00 37 992.7
20260503171637 17 248 14.5 20.9 0.00 0.00 0.00 35 992.6
20260503171135 17 259 8.0 11.3 0.00 0.00 0.00 38 992.9
20260503170632 17 242 8.0 11.3 0.00 0.00 0.00 36 992.9
20260503170128 17 246 6.4 6.4 0.00 0.00 0.00 41 993.1
20260503150520 13 253 6.4 6.4 0.00 0.00 0.00 47 994.4
20260503131413 10 243 6.4 9.7 0.00 0.00 0.00 52 994.2
20260503130910 10 235 4.8 11.3 0.00 0.00 0.00 53 994.5
20260503130408 9 237 6.4 6.4 0.00 0.00 0.00 53 994.5
20260503110811 2 358 0.0 0.0 0.00 0.00 0.00 77 994.5
20260503110308 2 307 0.0 0.0 0.00 0.00 0.00 77 994.2
20260503100235 2 296 0.0 0.0 0.00 0.00 0.00 75 994.4
20260503090154 2 280 1.6 1.6 0.00 0.00 0.00 73 994.6
20260503081624 2 251 1.6 1.6 0.00 0.00 0.00 74 994.8
20260503081121 2 266 1.6 1.6 0.00 0.00 0.00 74 994.9
20260503080617 2 247 1.6 1.6 0.00 0.00 0.00 73 994.8
20260503080114 3 244 1.6 1.6 0.00 0.00 0.00 73 994.5
20260503072551 3 249 1.6 1.6 0.00 0.00 0.00 73 994.7
20260503072048 3 240 1.6 1.6 0.00 0.00 0.00 73 994.6
20260503071544 3 247 3.2 3.2 0.00 0.00 0.00 73 994.8
20260503071041 3 251 1.6 1.6 0.00 0.00 0.00 73 994.7
20260503070537 3 245 3.2 3.2 0.00 0.00 0.00 72 994.8
20260503054951 4 250 1.6 1.6 0.00 0.00 0.00 67 995.1
20260503054447 4 237 1.6 3.2 0.00 0.00 0.00 67 995.1
20260503053945 4 238 1.6 3.2 0.00 0.00 0.00 68 995.2
20260503053443 4 253 1.6 1.6 0.00 0.00 0.00 67 995.3
20260503052939 4 246 1.6 3.2 0.00 0.00 0.00 67 995.2
20260503052437 5 250 1.6 3.2 0.00 0.00 0.00 66 995.2
20260503051933 5 254 1.6 3.2 0.00 0.00 0.00 66 995.5
20260503051429 5 246 0.0 1.6 0.00 0.00 0.00 67 995.3
20260503050926 5 253 1.6 1.6 0.00 0.00 0.00 66 995.3
20260503050422 5 238 1.6 1.6 0.00 0.00 0.00 67 995.4
20260503045920 5 243 1.6 1.6 0.00 0.00 0.00 67 995.4
20260503045417 5 265 1.6 1.6 0.00 0.00 0.00 68 995.4
20260503044914 5 252 1.6 1.6 0.00 0.00 0.00 66 995.3
20260503044411 5 241 1.6 3.2 0.00 0.00 0.00 66 995.5
20260503043908 5 243 1.6 1.6 0.00 0.00 0.00 66 995.2
20260503043404 5 257 1.6 1.6 0.00 0.00 0.00 66 995.4
20260503042901 5 246 1.6 1.6 0.00 0.00 0.00 66 995.1
20260503042357 5 241 1.6 1.6 0.00 0.00 0.00 65 995.0
20260503041854 5 233 1.6 1.6 0.00 0.00 0.00 65 995.3
20260503041351 5 248 1.6 1.6 0.00 0.00 0.00 65 995.3
20260503040848 5 257 3.2 3.2 0.00 0.00 0.00 65 995.5
20260503040346 5 272 0.0 1.6 0.00 0.00 0.00 65 995.3
20260503035843 6 284 0.0 0.0 0.00 0.00 0.00 65 995.4
20260503035339 6 275 0.0 1.6 0.00 0.00 0.00 64 995.4
20260503034837 6 264 0.0 1.6 0.00 0.00 0.00 63 995.4
20260503034334 6 235 1.6 1.6 0.00 0.00 0.00 63 995.4
20260503033831 6 235 1.6 3.2 0.00 0.00 0.00 62 995.3
20260503033329 6 244 1.6 1.6 0.00 0.00 0.00 63 995.4
20260503032827 6 249 1.6 3.2 0.00 0.00 0.00 62 995.4
20260503032326 6 260 1.6 1.6 0.00 0.00 0.00 61 995.4
20260503031822 6 255 1.6 1.6 0.00 0.00 0.00 63 995.3
20260503031320 6 278 0.0 0.0 0.00 0.00 0.00 65 995.6
20260503030816 5 265 0.0 0.0 0.00 0.00 0.00 69 995.6
20260503030313 5 292 0.0 1.6 0.00 0.00 0.00 72 995.3
20260503025809 5 354 0.0 0.0 0.00 0.00 0.00 72 995.6
20260503025307 5 329 0.0 0.0 0.00 0.00 0.00 70 995.7
20260503024804 5 5 0.0 0.0 0.00 0.00 0.00 69 995.5
20260503024300 5 6 0.0 0.0 0.00 0.00 0.00 68 995.6
20260503023758 5 2 0.0 0.0 0.00 0.00 0.00 68 995.6
20260503023255 5 2 0.0 0.0 0.00 0.00 0.00 70 995.8
20260503022751 5 2 0.0 0.0 0.00 0.00 0.00 70 995.7
20260503022251 5 353 0.0 0.0 0.00 0.00 0.00 68 995.7
20260503021748 5 353 0.0 0.0 0.00 0.00 0.00 68 995.6
20260503021244 5 353 0.0 0.0 0.00 0.00 0.00 68 995.5
20260503020742 5 353 0.0 0.0 0.00 0.00 0.00 69 995.7
20260503020239 6 14 0.0 0.0 0.00 0.00 0.00 68 995.9
20260503015735 6 10 0.0 0.0 0.00 0.00 0.00 69 995.6
20260503015232 6 10 0.0 0.0 0.00 0.00 0.00 66 995.6
20260503014728 6 10 0.0 0.0 0.00 0.00 0.00 65 995.6
20260503014227 6 10 0.0 0.0 0.00 0.00 0.00 65 995.5
20260503013723 6 10 0.0 0.0 0.00 0.00 0.00 65 995.5
20260503013221 6 10 0.0 0.0 0.00 0.00 0.00 65 995.7
20260503012718 6 10 0.0 0.0 0.00 0.00 0.00 65 995.6
20260503012215 6 10 0.0 0.0 0.00 0.00 0.00 63 995.3
20260503011712 6 10 0.0 0.0 0.00 0.00 0.00 62 995.5
20260503011209 6 10 0.0 0.0 0.00 0.00 0.00 62 995.5
20260503010705 6 350 0.0 0.0 0.00 0.00 0.00 64 995.3
20260503010202 6 350 0.0 0.0 0.00 0.00 0.00 63 995.5
20260503005659 6 350 0.0 0.0 0.00 0.00 0.00 62 995.3
20260503005156 6 350 0.0 0.0 0.00 0.00 0.00 60 995.4
20260503004652 7 350 0.0 0.0 0.00 0.00 0.00 60 995.3
20260503004151 7 350 0.0 0.0 0.00 0.00 0.00 58 995.2
20260503003648 7 350 0.0 0.0 0.00 0.00 0.00 58 995.4
20260503003145 7 343 0.0 0.0 0.00 0.00 0.00 57 995.4
20260503002641 7 342 0.0 0.0 0.00 0.00 0.00 57 995.4
20260503002138 7 350 0.0 0.0 0.00 0.00 0.00 55 995.3
20260503001634 7 336 0.0 0.0 0.00 0.00 0.00 56 995.4
20260503001131 7 336 0.0 0.0 0.00 0.00 0.00 55 995.4
20260503000629 7 320 0.0 0.0 0.00 0.00 0.00 51 995.4
20260503000126 8 322 0.0 0.0 0.00 0.00 0.00 53 995.2
20260502235622 8 331 0.0 0.0 0.00 0.00 0.00 51 995.0
20260502235121 8 333 0.0 0.0 0.00 0.00 0.00 50 995.4
20260502234616 8 327 0.0 0.0 0.00 0.00 0.00 52 995.3
20260502234114 8 330 0.0 0.0 0.00 0.00 0.00 49 995.3